Location: Unspecified
(12.6500°N, 0.0000°E)
Time: 14:25:00
(UTC+00:00)

N. Korean satellite - Visible Passes

Search period start: 19 October 2019 00:00
Search period end: 29 October 2019 00:00
Orbit: 455 x 508 km, 97.2° (Epoch: 18 October)

Date Brightness Start Highest point End Pass type
(mag) Time Alt. Az. Time Alt. Az. Time Alt. Az.
19 Oct 7.9 05:22:56 10° NNE 05:26:27 46° E 05:30:01 10° S visible
20 Oct 9.9 04:58:36 10° NE 05:01:12 18° E 05:03:49 10° SE visible
21 Oct 9.5 18:00:25 10° SSW 18:03:07 22° W 18:05:48 10° NW visible
23 Oct 8.6 05:15:18 10° NNE 05:18:40 34° E 05:22:04 10° SSE visible
24 Oct 10.2 04:51:21 10° ENE 04:53:24 14° E 04:55:27 10° SE visible
24 Oct 10.4 18:19:24 10° WSW 18:20:33 11° W 18:21:43 10° WNW visible
25 Oct 8.9 17:52:14 10° SSW 17:55:15 29° W 17:58:15 10° NW visible
27 Oct 9.2 05:07:41 10° NE 05:10:50 26° E 05:14:00 10° SSE visible
28 Oct 10.5 04:44:33 10° E 04:45:32 11° E 04:46:31 10° ESE visible
28 Oct 10.0 18:10:35 10° SW 18:12:39 15° W 18:14:43 10° WNW visible
